sat.trackr.live / text

‹ back to catalog

TJS-16

NORAD 63397 · 2025-064A

PAYLOAD ACTIVE UNKNOWN

§ Identity

Operator
Country
PRC
Launch date
2025-03-29
Launch site
WSC
Launch vehicle
Mass (kg)
RCS (m²)

Purposes: comms

External: N2YO · Heavens-Above · Gunter

§ Orbital elements

Epoch: 2026-09-19T19:52:29.028000Z

Period
1,436.07 min
Inclination
1.3350°
Eccentricity
0.0001693
Mean motion
1.00273439 rev/d
Perigee alt
35,779.0 km
Apogee alt
35,793.3 km
Semi-major
42,164.3 km
B*
0.0000e+0
RAAN
80.6332°
Arg perigee
248.0663°
Mean anomaly
128.8509°
Rev number
534

§ Raw data

TJS-161 63397U 25064A   26262.82811375 -.00000108  00000+0  00000+0 0  99962 63397   1.3350  80.6332 0001693 248.0663 128.8509  1.00273439  5346

JSON: /api/v1/satellites/63397 · /tle

For live sub-satellite position, see the globe view (requires WebGL).

§ Visibility from observer

Set your observer location to see the next 7 days of passes ≥ 10°. The values pass through the URL so the page stays shareable.

No JS? Fill the form by hand. The geolocation button needs JavaScript.